| time (UTC) | temp F | wind direction | speed MPH | gust MPH | rain 1hr in | rain 24hr in | rain mn in | humidity % | barometer mb |
| 20260831014513 | 72 | 216 | 0.0 | 2.0 | 0.00 | 0.28 | 0.28 | 96 | 1012.5 |
| 20260831013013 | 73 | 220 | 0.0 | 1.0 | 0.00 | 0.28 | 0.28 | 96 | 1012.8 |
| 20260831011512 | 73 | 232 | 0.0 | 4.0 | 0.00 | 0.28 | 0.28 | 96 | 1012.7 |
| 20260831010011 | 72 | 217 | 1.0 | 5.0 | 0.00 | 0.28 | 0.28 | 95 | 1012.6 |
| 20260831004515 | 72 | 233 | 0.0 | 6.0 | 0.01 | 0.28 | 0.28 | 95 | 1012.5 |
| 20260831003015 | 72 | 237 | 1.0 | 6.0 | 0.01 | 0.28 | 0.28 | 95 | 1012.2 |
| 20260831001510 | 72 | 226 | 1.0 | 7.0 | 0.01 | 0.28 | 0.28 | 94 | 1011.8 |
| 20260831000010 | 73 | 223 | 3.0 | 11.0 | 0.02 | 0.28 | 0.28 | 94 | 1011.7 |
| 20260830234510 | 72 | 225 | 2.0 | 5.0 | 0.01 | 0.28 | 0.28 | 95 | 1012.3 |
| 20260830233015 | 72 | 218 | 3.0 | 7.0 | 0.01 | 0.28 | 0.28 | 95 | 1012.5 |
| 20260830231508 | 72 | 203 | 1.0 | 6.0 | 0.01 | 0.28 | 0.28 | 94 | 1012.6 |
| 20260830230007 | 73 | 225 | 0.0 | 2.0 | 0.00 | 0.27 | 0.27 | 93 | 1012.7 |
| 20260830224507 | 73 | 225 | 0.0 | 1.0 | 0.01 | 0.28 | 0.27 | 92 | 1012.9 |
| 20260830223009 | 73 | 225 | 1.0 | 4.0 | 0.01 | 0.28 | 0.27 | 91 | 1012.7 |
| 20260830221506 | 73 | 221 | 1.0 | 6.0 | 0.01 | 0.28 | 0.27 | 93 | 1012.7 |
| 20260830220011 | 73 | 207 | 0.0 | 5.0 | 0.01 | 0.28 | 0.27 | 94 | 1012.6 |
| 20260830214507 | 73 | 214 | 0.0 | 3.0 | 0.00 | 0.28 | 0.26 | 95 | 1012.5 |
| 20260830213004 | 73 | 213 | 0.0 | 3.0 | 0.00 | 0.28 | 0.26 | 96 | 1012.7 |
| 20260830211505 | 74 | 213 | 0.0 | 0.0 | 0.00 | 0.28 | 0.26 | 95 | 1012.7 |
| 20260830210005 | 74 | 213 | 0.0 | 4.0 | 0.00 | 0.28 | 0.26 | 94 | 1012.8 |
| 20260830204502 | 73 | 201 | 0.0 | 5.0 | 0.02 | 0.28 | 0.26 | 94 | 1013.0 |
| 20260830203002 | 73 | 185 | 0.0 | 3.0 | 0.02 | 0.28 | 0.26 | 94 | 1013.1 |
| 20260830201502 | 73 | 72 | 0.0 | 0.0 | 0.07 | 0.28 | 0.26 | 95 | 1013.1 |
| 20260830200103 | 73 | 72 | 0.0 | 1.0 | 0.09 | 0.28 | 0.26 | 93 | 1012.8 |
| 20260830194600 | 73 | 217 | 0.0 | 5.0 | 0.12 | 0.26 | 0.24 | 91 | 1012.3 |
| 20260830193059 | 72 | 234 | 0.0 | 9.0 | 0.15 | 0.26 | 0.24 | 93 | 1012.0 |
| 20260830191621 | 72 | 226 | 0.0 | 0.0 | 0.11 | 0.21 | 0.19 | 93 | 1012.6 |
| 20260830190109 | 74 | 226 | 0.0 | 3.0 | 0.09 | 0.19 | 0.17 | 89 | 1012.5 |
| 20260830184558 | 77 | 219 | 0.0 | 1.0 | 0.04 | 0.14 | 0.12 | 80 | 1012.7 |
| 20260830183056 | 80 | 232 | 0.0 | 5.0 | 0.01 | 0.11 | 0.09 | 70 | 1012.6 |
| 20260830181556 | 81 | 308 | 1.0 | 8.0 | 0.00 | 0.10 | 0.08 | 66 | 1011.6 |
| 20260830180057 | 80 | 254 | 3.0 | 8.0 | 0.00 | 0.10 | 0.08 | 68 | 1011.0 |
| 20260830174557 | 79 | 265 | 0.0 | 9.0 | 0.00 | 0.10 | 0.08 | 71 | 1011.5 |
| 20260830173053 | 79 | 205 | 2.0 | 9.0 | 0.00 | 0.10 | 0.08 | 71 | 1011.0 |
| 20260830171553 | 80 | 218 | 2.0 | 10.0 | 0.00 | 0.10 | 0.08 | 69 | 1011.3 |
| 20260830170051 | 82 | 197 | 5.0 | 15.0 | 0.00 | 0.10 | 0.08 | 66 | 1011.2 |
| 20260830164549 | 82 | 248 | 4.0 | 11.0 | 0.00 | 0.10 | 0.08 | 69 | 1011.5 |
| 20260830163045 | 81 | 188 | 5.0 | 11.0 | 0.00 | 0.10 | 0.08 | 70 | 1011.7 |
| 20260830161545 | 80 | 238 | 3.0 | 11.0 | 0.00 | 0.10 | 0.08 | 72 | 1011.7 |
| 20260830160042 | 79 | 248 | 3.0 | 13.0 | 0.00 | 0.10 | 0.08 | 76 | 1011.7 |
| 20260830154537 | 77 | 235 | 5.0 | 12.0 | 0.00 | 0.10 | 0.08 | 78 | 1011.7 |
| 20260830153032 | 76 | 220 | 2.0 | 10.0 | 0.00 | 0.10 | 0.08 | 83 | 1012.0 |
| 20260830151526 | 75 | 218 | 3.0 | 7.0 | 0.00 | 0.10 | 0.08 | 84 | 1012.0 |
| 20260830150024 | 73 | 218 | 5.0 | 10.0 | 0.00 | 0.10 | 0.08 | 87 | 1012.0 |
| 20260830144524 | 72 | 246 | 3.0 | 8.0 | 0.00 | 0.10 | 0.08 | 90 | 1012.0 |
| 20260830143022 | 71 | 213 | 3.0 | 9.0 | 0.00 | 0.10 | 0.08 | 91 | 1012.3 |
| 20260830141521 | 70 | 254 | 3.0 | 7.0 | 0.00 | 0.10 | 0.08 | 93 | 1012.5 |
| 20260830140020 | 69 | 225 | 2.0 | 7.0 | 0.02 | 0.10 | 0.08 | 94 | 1012.6 |
| 20260830134520 | 69 | 240 | 0.0 | 6.0 | 0.03 | 0.10 | 0.08 | 94 | 1012.7 |
| 20260830133019 | 69 | 225 | 2.0 | 8.0 | 0.04 | 0.10 | 0.08 | 94 | 1012.6 |
| 20260830131539 | 69 | 240 | 1.0 | 7.0 | 0.04 | 0.10 | 0.08 | 93 | 1012.8 |
| 20260830130017 | 69 | 215 | 2.0 | 10.0 | 0.03 | 0.08 | 0.06 | 92 | 1013.4 |
| 20260830124516 | 70 | 209 | 0.0 | 3.0 | 0.02 | 0.07 | 0.05 | 91 | 1013.6 |
| 20260830123015 | 70 | 327 | 0.0 | 4.0 | 0.02 | 0.06 | 0.04 | 89 | 1013.7 |
| 20260830121517 | 69 | 277 | 0.0 | 8.0 | 0.02 | 0.06 | 0.04 | 91 | 1013.6 |
| 20260830120014 | 68 | 192 | 1.0 | 5.0 | 0.02 | 0.05 | 0.03 | 93 | 1013.2 |
| 20260830114511 | 69 | 224 | 0.0 | 2.0 | 0.02 | 0.05 | 0.03 | 92 | 1013.2 |
| 20260830113016 | 69 | 198 | 0.0 | 3.0 | 0.02 | 0.04 | 0.02 | 91 | 1012.8 |
| 20260830111506 | 69 | 198 | 0.0 | 6.0 | 0.02 | 0.04 | 0.02 | 89 | 1012.8 |
| 20260830110004 | 70 | 154 | 0.0 | 0.0 | 0.01 | 0.03 | 0.01 | 85 | 1012.9 |
| 20260830104502 | 72 | 142 | 0.0 | 0.0 | 0.00 | 0.02 | 0.00 | 78 | 1012.8 |
| 20260830103002 | 72 | 31 | 3.0 | 7.0 | 0.00 | 0.02 | 0.00 | 76 | 1012.8 |
| 20260830101615 | 72 | 219 | 3.0 | 7.0 | 0.00 | 0.02 | 0.00 | 76 | 1012.0 |
| 20260830100059 | 72 | 228 | 2.0 | 6.0 | 0.00 | 0.02 | 0.00 | 76 | 1012.0 |
| 20260830094557 | 72 | 225 | 3.0 | 6.0 | 0.00 | 0.02 | 0.00 | 76 | 1012.0 |
| 20260830093057 | 71 | 240 | 2.0 | 6.0 | 0.00 | 0.02 | 0.00 | 78 | 1012.0 |
| 20260830091557 | 71 | 221 | 1.0 | 6.0 | 0.00 | 0.02 | 0.00 | 79 | 1012.1 |
| 20260830090055 | 70 | 227 | 0.0 | 7.0 | 0.00 | 0.02 | 0.00 | 81 | 1012.1 |
| 20260830084555 | 71 | 217 | 3.0 | 7.0 | 0.00 | 0.02 | 0.00 | 81 | 1012.1 |
| 20260830083104 | 72 | 223 | 2.0 | 5.0 | 0.00 | 0.02 | 0.00 | 77 | 1012.3 |
| 20260830081546 | 73 | 230 | 2.0 | 8.0 | 0.00 | 0.02 | 0.00 | 72 | 1012.5 |
| 20260830080045 | 74 | 227 | 2.0 | 7.0 | 0.00 | 0.02 | 0.00 | 72 | 1012.8 |
| 20260830074543 | 73 | 206 | 2.0 | 7.0 | 0.00 | 0.02 | 0.00 | 72 | 1013.0 |
| 20260830073042 | 74 | 214 | 1.0 | 5.0 | 0.00 | 0.02 | 0.00 | 72 | 1013.3 |
| 20260830071541 | 73 | 238 | 0.0 | 5.0 | 0.00 | 0.02 | 0.00 | 73 | 1013.2 |
| 20260830070104 | 73 | 225 | 1.0 | 5.0 | 0.00 | 0.02 | 0.00 | 72 | 1013.3 |
| 20260830064538 | 74 | 219 | 0.0 | 4.0 | 0.00 | 0.02 | 0.00 | 71 | 1013.2 |
| 20260830063037 | 74 | 236 | 0.0 | 4.0 | 0.00 | 0.02 | 0.00 | 71 | 1013.2 |
| 20260830061535 | 74 | 256 | 1.0 | 6.0 | 0.00 | 0.02 | 0.00 | 71 | 1013.3 |
| 20260830060046 | 74 | 209 | 0.0 | 8.0 | 0.00 | 0.02 | 0.00 | 71 | 1013.2 |
| 20260830054533 | 74 | 205 | 3.0 | 9.0 | 0.00 | 0.02 | 0.00 | 71 | 1013.3 |
| 20260830053034 | 74 | 260 | 2.0 | 8.0 | 0.00 | 0.02 | 0.00 | 71 | 1013.4 |
| 20260830051537 | 74 | 248 | 3.0 | 11.0 | 0.00 | 0.02 | 0.00 | 71 | 1013.3 |
| 20260830050031 | 74 | 263 | 4.0 | 13.0 | 0.00 | 0.02 | 0.00 | 72 | 1013.2 |
| 20260830044539 | 74 | 183 | 3.0 | 11.0 | 0.00 | 0.02 | 0.02 | 73 | 1013.2 |
| 20260830043028 | 74 | 217 | 4.0 | 11.0 | 0.00 | 0.02 | 0.02 | 73 | 1013.3 |
| 20260830041546 | 74 | 246 | 4.0 | 14.0 | 0.00 | 0.02 | 0.02 | 73 | 1013.5 |
| 20260830040030 | 74 | 207 | 3.0 | 11.0 | 0.00 | 0.02 | 0.02 | 74 | 1013.6 |
| 20260830034524 | 74 | 224 | 3.0 | 10.0 | 0.00 | 0.02 | 0.02 | 74 | 1013.6 |
| 20260830033025 | 74 | 211 | 5.0 | 11.0 | 0.00 | 0.02 | 0.02 | 74 | 1013.8 |
| 20260830031529 | 74 | 227 | 6.0 | 11.0 | 0.00 | 0.02 | 0.02 | 75 | 1013.7 |
| 20260830030027 | 74 | 226 | 2.0 | 6.0 | 0.00 | 0.02 | 0.02 | 76 | 1013.9 |
| 20260830024521 | 74 | 221 | 2.0 | 8.0 | 0.00 | 0.02 | 0.02 | 76 | 1014.0 |
| 20260830023022 | 74 | 202 | 2.0 | 7.0 | 0.00 | 0.02 | 0.02 | 76 | 1014.1 |
| 20260830021518 | 73 | 250 | 0.0 | 2.0 | 0.00 | 0.02 | 0.02 | 77 | 1014.0 |
| 20260830020028 | 73 | 227 | 0.0 | 1.0 | 0.00 | 0.02 | 0.02 | 78 | 1014.1 |